| time (UTC) | temp C | wind direction | speed KPH | gust KPH | rain 1hr cm | rain 24hr cm | rain mn cm | humidity % | barometer mb |
| 20260507091454 | 9 | 314 | 1.6 | 14.5 | 0.00 | 2.64 | 0.00 | 69 | 1010.5 |
| 20260507090901 | 9 | 22 | 3.2 | 14.5 | 0.00 | 2.64 | 0.00 | 68 | 1010.6 |
| 20260507090203 | 9 | 319 | 3.2 | 11.3 | 0.00 | 2.64 | 0.00 | 69 | 1010.7 |
| 20260507085352 | 9 | 28 | 4.8 | 11.3 | 0.00 | 2.64 | 0.00 | 69 | 1010.7 |
| 20260507084915 | 9 | 321 | 1.6 | 8.0 | 0.00 | 2.64 | 0.00 | 69 | 1010.7 |
| 20260507084213 | 9 | 322 | 1.6 | 8.0 | 0.00 | 2.64 | 0.00 | 69 | 1010.5 |
| 20260507083620 | 9 | 351 | 3.2 | 8.0 | 0.00 | 2.64 | 0.00 | 68 | 1010.6 |
| 20260507082920 | 9 | 336 | 4.8 | 8.0 | 0.00 | 2.64 | 0.00 | 68 | 1010.7 |
| 20260507082325 | 10 | 294 | 1.6 | 8.0 | 0.00 | 2.64 | 0.00 | 69 | 1010.7 |
| 20260507081628 | 10 | 314 | 3.2 | 6.4 | 0.00 | 2.64 | 0.00 | 68 | 1010.8 |
| 20260507081141 | 10 | 55 | 1.6 | 8.0 | 0.00 | 2.64 | 0.00 | 68 | 1010.9 |
| 20260507080449 | 10 | 14 | 3.2 | 9.7 | 0.00 | 2.64 | 0.00 | 68 | 1010.8 |
| 20260507080003 | 10 | 308 | 3.2 | 11.3 | 0.00 | 2.64 | 0.00 | 67 | 1010.8 |
| 20260507075519 | 10 | 305 | 4.8 | 11.3 | 0.00 | 2.64 | 0.00 | 67 | 1010.8 |
| 20260507074826 | 10 | 290 | 3.2 | 12.9 | 0.00 | 2.64 | 0.00 | 68 | 1010.8 |
| 20260507074127 | 10 | 24 | 6.4 | 16.1 | 0.00 | 2.64 | 0.00 | 68 | 1010.8 |
| 20260507073641 | 10 | 267 | 4.8 | 16.1 | 0.00 | 2.64 | 0.00 | 69 | 1010.6 |
| 20260507073055 | 10 | 360 | 3.2 | 12.9 | 0.00 | 2.64 | 0.00 | 70 | 1010.6 |
| 20260507072355 | 10 | 289 | 1.6 | 14.5 | 0.00 | 2.64 | 0.00 | 71 | 1010.8 |
| 20260507071654 | 10 | 350 | 3.2 | 14.5 | 0.00 | 2.64 | 0.00 | 71 | 1010.8 |
| 20260507070953 | 10 | 331 | 4.8 | 16.1 | 0.00 | 2.64 | 0.00 | 73 | 1010.9 |
| 20260507070403 | 10 | 352 | 6.4 | 16.1 | 0.00 | 2.64 | 0.00 | 74 | 1010.9 |
| 20260507065809 | 10 | 309 | 4.8 | 16.1 | 0.00 | 2.64 | 0.00 | 75 | 1011.0 |
| 20260507065219 | 10 | 311 | 6.4 | 16.1 | 0.00 | 2.64 | 0.00 | 75 | 1011.0 |
| 20260507064741 | 10 | 297 | 6.4 | 16.1 | 0.00 | 2.64 | 0.00 | 79 | 1010.7 |
| 20260507064151 | 10 | 318 | 4.8 | 16.1 | 0.00 | 2.64 | 0.00 | 82 | 1010.8 |
| 20260507063709 | 10 | 319 | 6.4 | 16.1 | 0.00 | 2.64 | 0.00 | 84 | 1010.9 |
| 20260507062748 | 10 | 324 | 4.8 | 12.9 | 0.00 | 2.64 | 0.00 | 86 | 1010.7 |
| 20260507062053 | 10 | 314 | 1.6 | 6.4 | 0.00 | 2.64 | 0.00 | 86 | 1010.6 |
| 20260507061350 | 10 | 315 | 3.2 | 6.4 | 0.00 | 2.64 | 0.00 | 86 | 1010.8 |
| 20260507060759 | 10 | 335 | 1.6 | 6.4 | 0.00 | 2.64 | 0.00 | 86 | 1010.7 |
| 20260507060211 | 10 | 334 | 3.2 | 6.4 | 0.00 | 2.64 | 0.00 | 86 | 1010.8 |
| 20260507055621 | 10 | 5 | 1.6 | 4.8 | 0.00 | 2.64 | 0.00 | 86 | 1010.6 |
| 20260507055026 | 10 | 323 | 0.0 | 3.2 | 0.00 | 2.64 | 0.00 | 86 | 1010.8 |
| 20260507054440 | 10 | 323 | 0.0 | 3.2 | 0.00 | 2.64 | 0.00 | 85 | 1010.8 |
| 20260507053850 | 10 | 323 | 0.0 | 3.2 | 0.00 | 2.64 | 0.00 | 85 | 1010.8 |
| 20260507053256 | 10 | 322 | 0.0 | 3.2 | 0.00 | 2.64 | 0.00 | 85 | 1010.8 |
| 20260507052821 | 10 | 322 | 0.0 | 3.2 | 0.00 | 2.64 | 0.00 | 85 | 1010.8 |
| 20260507052229 | 10 | 322 | 0.0 | 3.2 | 0.00 | 2.64 | 0.00 | 85 | 1010.8 |
| 20260507051635 | 10 | 323 | 0.0 | 6.4 | 0.00 | 2.64 | 0.00 | 85 | 1010.9 |
| 20260507051155 | 10 | 323 | 0.0 | 6.4 | 0.00 | 2.64 | 0.00 | 85 | 1011.0 |
| 20260507050715 | 10 | 309 | 0.0 | 3.2 | 0.00 | 2.64 | 0.00 | 85 | 1010.9 |
| 20260507050035 | 10 | 309 | 0.0 | 8.0 | 0.00 | 2.64 | 0.00 | 85 | 1010.7 |
| 20260507045208 | 10 | 76 | 0.0 | 8.0 | 0.00 | 2.64 | 0.00 | 85 | 1010.7 |
| 20260507044618 | 10 | 333 | 1.6 | 6.4 | 0.00 | 2.64 | 0.00 | 85 | 1010.7 |
| 20260507044130 | 10 | 323 | 1.6 | 4.8 | 0.00 | 2.64 | 0.00 | 86 | 1010.8 |
| 20260507043541 | 10 | 15 | 0.0 | 3.2 | 0.00 | 2.64 | 0.00 | 85 | 1010.9 |
| 20260507043109 | 10 | 15 | 0.0 | 4.8 | 0.00 | 2.64 | 0.00 | 85 | 1010.9 |
| 20260507042358 | 10 | 54 | 1.6 | 4.8 | 0.00 | 2.64 | 2.64 | 86 | 1010.6 |
| 20260507041812 | 11 | 53 | 3.2 | 4.8 | 0.00 | 2.64 | 2.64 | 86 | 1010.8 |
| 20260507041221 | 11 | 346 | 0.0 | 3.2 | 0.00 | 2.64 | 2.64 | 86 | 1010.3 |
| 20260507040634 | 11 | 329 | 0.0 | 6.4 | 0.00 | 2.64 | 2.64 | 85 | 1010.3 |
| 20260507040149 | 11 | 15 | 1.6 | 6.4 | 0.00 | 2.64 | 2.64 | 85 | 1010.4 |
| 20260507035606 | 11 | 44 | 0.0 | 3.2 | 0.00 | 2.64 | 2.64 | 85 | 1010.5 |
| 20260507035014 | 11 | 45 | 1.6 | 3.2 | 0.00 | 2.64 | 2.64 | 85 | 1010.1 |
| 20260507034547 | 11 | 46 | 1.6 | 6.4 | 0.00 | 2.64 | 2.64 | 85 | 1010.1 |
| 20260507033834 | 11 | 46 | 1.6 | 6.4 | 0.00 | 2.64 | 2.64 | 85 | 1010.0 |
| 20260507033354 | 11 | 34 | 3.2 | 6.4 | 0.00 | 2.64 | 2.64 | 85 | 1010.1 |
| 20260507032653 | 11 | 25 | 3.2 | 6.4 | 0.00 | 2.64 | 2.64 | 85 | 1010.1 |
| 20260507031948 | 11 | 31 | 3.2 | 8.0 | 0.00 | 2.64 | 2.64 | 85 | 1010.4 |
| 20260507031404 | 11 | 39 | 3.2 | 9.7 | 0.00 | 2.64 | 2.64 | 85 | 1010.2 |
| 20260507030918 | 11 | 51 | 4.8 | 9.7 | 0.00 | 2.64 | 2.64 | 85 | 1010.2 |
| 20260507030223 | 11 | 29 | 1.6 | 8.0 | 0.00 | 2.64 | 2.64 | 85 | 1010.3 |
| 20260507025411 | 11 | 50 | 3.2 | 8.0 | 0.00 | 2.64 | 2.64 | 85 | 1010.3 |
| 20260507024819 | 11 | 36 | 4.8 | 14.5 | 0.00 | 2.64 | 2.64 | 85 | 1010.5 |
| 20260507024342 | 11 | 40 | 3.2 | 14.5 | 0.00 | 2.64 | 2.64 | 85 | 1010.3 |
| 20260507023751 | 11 | 51 | 3.2 | 8.0 | 0.00 | 2.64 | 2.64 | 85 | 1010.3 |
| 20260507023309 | 11 | 36 | 3.2 | 14.5 | 0.00 | 2.64 | 2.64 | 85 | 1010.1 |
| 20260507022607 | 11 | 31 | 8.0 | 19.3 | 0.00 | 2.64 | 2.64 | 85 | 1010.0 |
| 20260507022134 | 11 | 57 | 6.4 | 19.3 | 0.00 | 2.64 | 2.64 | 84 | 1010.0 |
| 20260507021552 | 11 | 52 | 4.8 | 16.1 | 0.00 | 2.64 | 2.64 | 85 | 1010.0 |
| 20260507020951 | 11 | 52 | 4.8 | 17.7 | 0.00 | 2.64 | 2.64 | 85 | 1010.1 |
| 20260507020509 | 11 | 25 | 8.0 | 17.7 | 0.00 | 2.64 | 2.64 | 84 | 1010.3 |
| 20260507015920 | 12 | 47 | 4.8 | 12.9 | 0.00 | 2.64 | 2.64 | 85 | 1010.4 |
| 20260507015545 | 12 | 36 | 3.2 | 12.9 | 0.00 | 2.64 | 2.64 | 85 | 1010.3 |
| 20260507014847 | 12 | 42 | 4.8 | 12.9 | 0.00 | 2.64 | 2.64 | 85 | 1010.3 |
| 20260507014406 | 12 | 40 | 4.8 | 11.3 | 0.00 | 2.64 | 2.64 | 85 | 1010.4 |
| 20260507013600 | 12 | 36 | 4.8 | 11.3 | 0.00 | 2.64 | 2.64 | 85 | 1010.4 |
| 20260507013045 | 12 | 360 | 4.8 | 12.9 | 0.00 | 2.64 | 2.64 | 85 | 1010.5 |
| 20260507012520 | 12 | 60 | 6.4 | 12.9 | 0.00 | 2.64 | 2.64 | 85 | 1010.4 |
| 20260507012039 | 12 | 46 | 8.0 | 14.5 | 0.00 | 2.64 | 2.64 | 85 | 1010.3 |
| 20260507011610 | 12 | 26 | 4.8 | 16.1 | 0.00 | 2.64 | 2.64 | 85 | 1010.5 |
| 20260507011118 | 13 | 34 | 8.0 | 16.1 | 0.00 | 2.64 | 2.64 | 84 | 1010.2 |
| 20260507010422 | 13 | 44 | 6.4 | 14.5 | 0.00 | 2.64 | 2.64 | 83 | 1010.0 |
| 20260507005721 | 13 | 288 | 3.2 | 19.3 | 0.00 | 2.64 | 2.64 | 82 | 1009.9 |
| 20260507005007 | 14 | 311 | 4.8 | 19.3 | 0.00 | 2.64 | 2.64 | 81 | 1009.9 |
| 20260507004526 | 14 | 308 | 9.7 | 19.3 | 0.00 | 2.64 | 2.64 | 81 | 1009.9 |
| 20260507004011 | 14 | 306 | 6.4 | 16.1 | 0.00 | 2.64 | 2.64 | 82 | 1009.7 |
| 20260507003514 | 14 | 261 | 6.4 | 16.1 | 0.00 | 2.64 | 2.64 | 81 | 1009.6 |
| 20260507003028 | 14 | 281 | 4.8 | 16.1 | 0.00 | 2.64 | 2.64 | 82 | 1009.4 |
| 20260507002506 | 14 | 323 | 4.8 | 16.1 | 0.00 | 2.64 | 2.64 | 82 | 1009.3 |
| 20260507002009 | 14 | 319 | 4.8 | 16.1 | 0.00 | 2.64 | 2.64 | 82 | 1009.2 |
| 20260507001515 | 14 | 281 | 4.8 | 14.5 | 0.00 | 2.64 | 2.64 | 82 | 1008.7 |
| 20260507001012 | 14 | 290 | 4.8 | 16.1 | 0.00 | 2.64 | 2.64 | 82 | 1008.6 |
| 20260507000507 | 14 | 304 | 4.8 | 16.1 | 0.00 | 2.64 | 2.64 | 82 | 1008.6 |
| 20260507000029 | 14 | 276 | 4.8 | 12.9 | 0.00 | 2.64 | 2.64 | 83 | 1008.7 |
| 20260506235511 | 15 | 309 | 3.2 | 14.5 | 0.00 | 2.64 | 2.64 | 83 | 1008.5 |
| 20260506235007 | 15 | 304 | 3.2 | 14.5 | 0.00 | 2.64 | 2.64 | 82 | 1008.4 |
| 20260506234504 | 15 | 300 | 4.8 | 12.9 | 0.00 | 2.64 | 2.64 | 82 | 1008.3 |
| 20260506234003 | 15 | 317 | 4.8 | 12.9 | 0.00 | 2.64 | 2.64 | 83 | 1008.4 |
| 20260506233507 | 15 | 294 | 4.8 | 9.7 | 0.00 | 2.64 | 2.64 | 83 | 1008.2 |
| 20260506233008 | 15 | 288 | 3.2 | 12.9 | 0.00 | 2.64 | 2.64 | 83 | 1008.0 |
| 20260506232509 | 15 | 313 | 1.6 | 12.9 | 0.00 | 2.64 | 2.64 | 83 | 1007.9 |
| 20260506232007 | 15 | 295 | 3.2 | 12.9 | 0.00 | 2.64 | 2.64 | 82 | 1008.1 |
| 20260506231512 | 15 | 295 | 1.6 | 12.9 | 0.00 | 2.64 | 2.64 | 82 | 1008.1 |
| 20260506231006 | 15 | 278 | 6.4 | 12.9 | 0.00 | 2.64 | 2.64 | 82 | 1008.0 |
| 20260506230508 | 15 | 293 | 6.4 | 14.5 | 0.00 | 2.64 | 2.64 | 83 | 1007.9 |
| 20260506230029 | 15 | 299 | 4.8 | 17.7 | 0.00 | 2.64 | 2.64 | 83 | 1007.9 |
| 20260506225508 | 15 | 229 | 4.8 | 17.7 | 0.00 | 2.64 | 2.64 | 83 | 1008.0 |
| 20260506225007 | 15 | 323 | 6.4 | 17.7 | 0.00 | 2.64 | 2.64 | 82 | 1007.9 |
| 20260506224531 | 15 | 340 | 8.0 | 20.9 | 0.00 | 2.64 | 2.64 | 83 | 1007.9 |
| 20260506224008 | 15 | 289 | 6.4 | 20.9 | 0.00 | 2.64 | 2.64 | 84 | 1007.9 |
| 20260506223508 | 16 | 325 | 8.0 | 17.7 | 0.00 | 2.64 | 2.64 | 83 | 1007.9 |
| 20260506223004 | 16 | 297 | 6.4 | 20.9 | 0.00 | 2.64 | 2.64 | 84 | 1007.9 |
| 20260506222506 | 16 | 328 | 3.2 | 20.9 | 0.00 | 2.64 | 2.64 | 84 | 1007.9 |
| 20260506222007 | 16 | 260 | 6.4 | 20.9 | 0.00 | 2.64 | 2.64 | 84 | 1007.8 |
| 20260506221508 | 16 | 252 | 4.8 | 19.3 | 0.00 | 2.64 | 2.64 | 84 | 1007.8 |
| 20260506221004 | 16 | 264 | 8.0 | 19.3 | 0.00 | 2.64 | 2.64 | 85 | 1007.6 |
| 20260506220507 | 17 | 327 | 3.2 | 12.9 | 0.00 | 2.64 | 2.64 | 86 | 1007.5 |
| 20260506220030 | 17 | 300 | 4.8 | 12.9 | 0.00 | 2.64 | 2.64 | 86 | 1007.4 |
| 20260506215514 | 17 | 317 | 1.6 | 8.0 | 0.00 | 2.64 | 2.64 | 86 | 1007.3 |
| 20260506215009 | 17 | 342 | 3.2 | 9.7 | 0.00 | 2.64 | 2.64 | 87 | 1007.1 |
| 20260506214528 | 17 | 292 | 3.2 | 9.7 | 0.00 | 2.64 | 2.64 | 87 | 1006.9 |
| 20260506214007 | 17 | 282 | 3.2 | 9.7 | 0.00 | 2.64 | 2.64 | 88 | 1006.9 |
| 20260506213509 | 17 | 315 | 1.6 | 11.3 | 0.00 | 2.64 | 2.64 | 88 | 1006.7 |
| 20260506213028 | 17 | 273 | 3.2 | 11.3 | 0.00 | 2.64 | 2.64 | 88 | 1006.7 |
| 20260506212510 | 17 | 276 | 4.8 | 9.7 | 0.00 | 2.64 | 2.64 | 88 | 1006.6 |
| 20260506212004 | 17 | 253 | 0.0 | 0.0 | 0.00 | 2.64 | 2.64 | 89 | 1006.5 |
| 20260506211514 | 17 | 243 | 0.0 | 4.8 | 0.00 | 2.64 | 2.64 | 89 | 1006.5 |
| 20260506211008 | 17 | 219 | 0.0 | 11.3 | 0.00 | 2.64 | 2.64 | 89 | 1006.5 |
| 20260506210517 | 17 | 244 | 1.6 | 11.3 | 0.00 | 2.64 | 2.64 | 89 | 1006.5 |
| 20260506210025 | 17 | 280 | 1.6 | 8.0 | 0.00 | 2.64 | 2.64 | 89 | 1006.5 |
| 20260506205510 | 17 | 204 | 1.6 | 9.7 | 0.00 | 2.64 | 2.64 | 89 | 1006.4 |
| 20260506205015 | 17 | 198 | 4.8 | 14.5 | 0.00 | 2.64 | 2.64 | 89 | 1006.3 |
| 20260506204520 | 17 | 202 | 4.8 | 14.5 | 0.00 | 2.64 | 2.64 | 89 | 1006.3 |
| 20260506204010 | 17 | 181 | 4.8 | 12.9 | 0.00 | 2.64 | 2.64 | 89 | 1006.2 |
| 20260506203510 | 17 | 205 | 3.2 | 12.9 | 0.00 | 2.64 | 2.64 | 89 | 1006.2 |
| 20260506203024 | 17 | 206 | 3.2 | 11.3 | 0.00 | 2.64 | 2.64 | 90 | 1006.2 |
| 20260506202513 | 17 | 210 | 4.8 | 8.0 | 0.00 | 2.64 | 2.64 | 90 | 1006.2 |
| 20260506202010 | 17 | 165 | 3.2 | 14.5 | 0.00 | 2.64 | 2.64 | 90 | 1006.0 |
| 20260506201527 | 17 | 168 | 6.4 | 14.5 | 0.00 | 2.64 | 2.64 | 90 | 1006.0 |
| 20260506201011 | 17 | 196 | 6.4 | 12.9 | 0.00 | 2.64 | 2.64 | 90 | 1006.1 |
| 20260506200506 | 17 | 202 | 6.4 | 12.9 | 0.00 | 2.64 | 2.64 | 90 | 1006.2 |
| 20260506200030 | 17 | 197 | 6.4 | 9.7 | 0.00 | 2.64 | 2.64 | 92 | 1006.2 |
| 20260506195507 | 16 | 217 | 3.2 | 9.7 | 0.00 | 2.64 | 2.64 | 92 | 1006.2 |
| 20260506195010 | 16 | 221 | 1.6 | 11.3 | 0.00 | 2.64 | 2.64 | 92 | 1006.2 |
| 20260506194515 | 16 | 206 | 4.8 | 11.3 | 0.00 | 2.64 | 2.64 | 92 | 1006.4 |
| 20260506194008 | 16 | 218 | 6.4 | 11.3 | 0.00 | 2.64 | 2.64 | 92 | 1006.4 |
| 20260506193507 | 16 | 209 | 6.4 | 11.3 | 0.00 | 2.64 | 2.64 | 92 | 1006.4 |
| 20260506193019 | 16 | 171 | 4.8 | 11.3 | 0.00 | 2.64 | 2.64 | 92 | 1006.5 |
| 20260506192510 | 16 | 186 | 3.2 | 12.9 | 0.00 | 2.64 | 2.64 | 93 | 1006.5 |
| 20260506192010 | 16 | 176 | 4.8 | 12.9 | 0.00 | 2.64 | 2.64 | 93 | 1006.5 |
| 20260506191526 | 16 | 174 | 6.4 | 16.1 | 0.00 | 2.64 | 2.64 | 93 | 1006.5 |
| 20260506191010 | 16 | 189 | 8.0 | 16.1 | 0.00 | 2.64 | 2.64 | 93 | 1006.5 |
| 20260506190510 | 16 | 219 | 4.8 | 12.9 | 0.03 | 2.64 | 2.64 | 93 | 1006.5 |
| 20260506190030 | 16 | 212 | 8.0 | 14.5 | 0.03 | 2.64 | 2.64 | 94 | 1006.5 |
| 20260506185511 | 16 | 187 | 9.7 | 17.7 | 0.03 | 2.64 | 2.64 | 94 | 1006.5 |
| 20260506185008 | 16 | 190 | 8.0 | 16.1 | 0.03 | 2.64 | 2.64 | 94 | 1006.6 |
| 20260506184517 | 16 | 222 | 4.8 | 14.5 | 0.08 | 2.64 | 2.64 | 94 | 1006.6 |
| 20260506184010 | 16 | 161 | 8.0 | 12.9 | 0.13 | 2.64 | 2.64 | 94 | 1006.6 |
| 20260506183509 | 16 | 202 | 6.4 | 12.9 | 0.18 | 2.64 | 2.64 | 95 | 1006.8 |
| 20260506183019 | 15 | 176 | 4.8 | 14.5 | 0.23 | 2.64 | 2.64 | 95 | 1006.7 |
| 20260506182507 | 15 | 220 | 6.4 | 14.5 | 0.30 | 2.64 | 2.64 | 95 | 1006.8 |
| 20260506182012 | 15 | 145 | 4.8 | 11.3 | 0.33 | 2.64 | 2.64 | 94 | 1006.8 |
| 20260506181523 | 15 | 207 | 6.4 | 11.3 | 0.38 | 2.64 | 2.64 | 94 | 1006.9 |
| 20260506181010 | 15 | 215 | 3.2 | 11.3 | 0.38 | 2.64 | 2.64 | 94 | 1006.8 |
| 20260506180508 | 15 | 245 | 4.8 | 9.7 | 0.36 | 2.62 | 2.62 | 94 | 1006.8 |
| 20260506180027 | 15 | 201 | 0.0 | 9.7 | 0.41 | 2.62 | 2.62 | 95 | 1006.9 |
| 20260506175509 | 15 | 213 | 3.2 | 8.0 | 0.43 | 2.62 | 2.62 | 94 | 1007.0 |
| 20260506175009 | 15 | 203 | 3.2 | 14.5 | 0.46 | 2.62 | 2.62 | 94 | 1006.9 |
| 20260506174512 | 15 | 202 | 1.6 | 14.5 | 0.43 | 2.57 | 2.57 | 94 | 1007.0 |
| 20260506174007 | 15 | 180 | 0.0 | 9.7 | 0.41 | 2.51 | 2.51 | 94 | 1007.0 |
| 20260506173508 | 15 | 220 | 3.2 | 12.9 | 0.36 | 2.46 | 2.46 | 94 | 1006.8 |
| 20260506173021 | 15 | 191 | 6.4 | 14.5 | 0.30 | 2.41 | 2.41 | 94 | 1006.8 |
| 20260506172509 | 15 | 207 | 4.8 | 14.5 | 0.23 | 2.34 | 2.34 | 94 | 1007.0 |
| 20260506172008 | 15 | 209 | 4.8 | 12.9 | 0.20 | 2.31 | 2.31 | 94 | 1006.9 |
| 20260506171522 | 15 | 197 | 4.8 | 12.9 | 0.15 | 2.26 | 2.26 | 94 | 1007.0 |
| 20260506171011 | 15 | 199 | 4.8 | 12.9 | 0.15 | 2.26 | 2.26 | 93 | 1006.9 |
| 20260506170509 | 15 | 194 | 1.6 | 12.9 | 0.15 | 2.26 | 2.26 | 93 | 1006.9 |
| 20260506170026 | 15 | 200 | 4.8 | 11.3 | 0.10 | 2.21 | 2.21 | 93 | 1007.0 |
| 20260506165509 | 15 | 181 | 4.8 | 11.3 | 0.08 | 2.18 | 2.18 | 93 | 1007.0 |
| 20260506165010 | 15 | 217 | 3.2 | 14.5 | 0.05 | 2.16 | 2.16 | 93 | 1007.0 |
| 20260506164525 | 15 | 215 | 4.8 | 17.7 | 0.03 | 2.13 | 2.13 | 93 | 1007.0 |
| 20260506164011 | 15 | 236 | 9.7 | 19.3 | 0.00 | 2.11 | 2.11 | 93 | 1007.1 |
| 20260506163507 | 15 | 207 | 6.4 | 20.9 | 0.00 | 2.11 | 2.11 | 92 | 1007.1 |
| 20260506163022 | 15 | 162 | 6.4 | 20.9 | 0.00 | 2.11 | 2.11 | 93 | 1007.1 |
| 20260506162508 | 15 | 202 | 3.2 | 11.3 | 0.00 | 2.11 | 2.11 | 93 | 1007.1 |
| 20260506162010 | 15 | 178 | 4.8 | 11.3 | 0.00 | 2.11 | 2.11 | 93 | 1007.1 |
| 20260506161519 | 15 | 200 | 4.8 | 16.1 | 0.00 | 2.11 | 2.11 | 93 | 1007.1 |
| 20260506161007 | 15 | 229 | 8.0 | 19.3 | 0.03 | 2.11 | 2.11 | 93 | 1007.0 |
| 20260506160508 | 15 | 230 | 6.4 | 19.3 | 0.03 | 2.11 | 2.11 | 93 | 1007.0 |
| 20260506160023 | 15 | 187 | 6.4 | 16.1 | 0.05 | 2.11 | 2.11 | 93 | 1007.0 |
| 20260506155511 | 15 | 200 | 8.0 | 24.1 | 0.13 | 2.11 | 2.11 | 93 | 1007.0 |
| 20260506155011 | 15 | 198 | 9.7 | 24.1 | 0.20 | 2.11 | 2.11 | 93 | 1007.0 |
| 20260506154528 | 15 | 203 | 4.8 | 19.3 | 0.28 | 2.11 | 2.11 | 93 | 1007.0 |
| 20260506154012 | 15 | 165 | 6.4 | 19.3 | 0.41 | 2.11 | 2.11 | 93 | 1007.0 |
| 20260506153512 | 15 | 226 | 8.0 | 24.1 | 0.53 | 2.11 | 2.11 | 93 | 1006.9 |
| 20260506153025 | 15 | 224 | 9.7 | 24.1 | 0.64 | 2.11 | 2.11 | 93 | 1006.7 |
| 20260506152511 | 15 | 190 | 9.7 | 17.7 | 0.74 | 2.11 | 2.11 | 93 | 1006.7 |
| 20260506152007 | 15 | 213 | 8.0 | 17.7 | 0.79 | 2.11 | 2.11 | 93 | 1006.7 |
| 20260506151519 | 15 | 198 | 6.4 | 19.3 | 0.81 | 2.11 | 2.11 | 93 | 1006.6 |
| 20260506151010 | 15 | 213 | 9.7 | 24.1 | 0.81 | 2.08 | 2.08 | 93 | 1006.6 |
| 20260506150508 | 14 | 150 | 8.0 | 22.5 | 0.84 | 2.08 | 2.08 | 93 | 1006.8 |
| 20260506150022 | 15 | 184 | 8.0 | 16.1 | 0.84 | 2.06 | 2.06 | 93 | 1007.0 |
| 20260506145503 | 14 | 211 | 6.4 | 16.1 | 0.79 | 1.98 | 1.98 | 93 | 1007.0 |
| 20260506145004 | 14 | 212 | 6.4 | 12.9 | 0.74 | 1.91 | 1.91 | 93 | 1007.1 |
| 20260506144506 | 14 | 193 | 8.0 | 17.7 | 0.74 | 1.83 | 1.83 | 92 | 1007.0 |
| 20260506144004 | 14 | 203 | 8.0 | 17.7 | 0.66 | 1.70 | 1.70 | 92 | 1007.2 |
| 20260506143505 | 15 | 184 | 8.0 | 20.9 | 0.56 | 1.57 | 1.57 | 92 | 1007.3 |
| 20260506143011 | 15 | 177 | 9.7 | 19.3 | 0.48 | 1.47 | 1.47 | 92 | 1007.5 |
| 20260506142507 | 15 | 227 | 6.4 | 17.7 | 0.41 | 1.37 | 1.37 | 92 | 1007.6 |
| 20260506142007 | 15 | 207 | 6.4 | 20.9 | 0.38 | 1.32 | 1.32 | 92 | 1007.6 |
| 20260506141515 | 15 | 198 | 8.0 | 19.3 | 0.41 | 1.30 | 1.30 | 91 | 1007.4 |
| 20260506141011 | 15 | 194 | 8.0 | 17.7 | 0.43 | 1.27 | 1.27 | 91 | 1007.4 |
| 20260506140509 | 15 | 194 | 8.0 | 16.1 | 0.41 | 1.24 | 1.24 | 91 | 1007.2 |
| 20260506140020 | 15 | 238 | 6.4 | 20.9 | 0.38 | 1.22 | 1.22 | 91 | 1007.1 |
| 20260506135503 | 15 | 191 | 9.7 | 20.9 | 0.36 | 1.19 | 1.19 | 91 | 1007.0 |
| 20260506135003 | 15 | 209 | 8.0 | 12.9 | 0.36 | 1.17 | 1.17 | 91 | 1007.1 |
| 20260506134505 | 15 | 208 | 4.8 | 16.1 | 0.28 | 1.09 | 1.09 | 91 | 1007.0 |
| 20260506134005 | 15 | 182 | 9.7 | 17.7 | 0.28 | 1.04 | 1.04 | 90 | 1007.0 |
| 20260506133506 | 15 | 207 | 8.0 | 17.7 | 0.28 | 1.02 | 1.02 | 90 | 1007.2 |
| 20260506133012 | 15 | 193 | 8.0 | 24.1 | 0.28 | 0.99 | 0.99 | 90 | 1007.2 |
| 20260506132506 | 15 | 180 | 9.7 | 22.5 | 0.30 | 0.97 | 0.97 | 90 | 1007.2 |
| 20260506132013 | 15 | 194 | 8.0 | 19.3 | 0.33 | 0.94 | 0.94 | 90 | 1007.2 |
| 20260506131517 | 15 | 180 | 8.0 | 19.3 | 0.36 | 0.89 | 0.89 | 90 | 1007.4 |
| 20260506131008 | 15 | 192 | 4.8 | 17.7 | 0.38 | 0.84 | 0.84 | 90 | 1007.2 |
| 20260506130509 | 15 | 227 | 9.7 | 17.7 | 0.41 | 0.84 | 0.84 | 90 | 1007.2 |
| 20260506130020 | 15 | 218 | 4.8 | 14.5 | 0.48 | 0.84 | 0.84 | 90 | 1007.4 |
| 20260506125508 | 15 | 182 | 3.2 | 14.5 | 0.56 | 0.84 | 0.84 | 90 | 1007.4 |
| 20260506125011 | 15 | 236 | 6.4 | 12.9 | 0.58 | 0.81 | 0.81 | 90 | 1007.3 |
| 20260506124504 | 15 | 207 | 4.8 | 16.1 | 0.66 | 0.81 | 0.81 | 89 | 1007.4 |
| 20260506124004 | 15 | 195 | 6.4 | 16.1 | 0.69 | 0.76 | 0.76 | 89 | 1007.5 |
| 20260506123504 | 15 | 150 | 6.4 | 16.1 | 0.69 | 0.74 | 0.74 | 88 | 1007.6 |
| 20260506123006 | 15 | 153 | 6.4 | 16.1 | 0.69 | 0.71 | 0.71 | 88 | 1007.7 |
| 20260506122504 | 15 | 152 | 6.4 | 16.1 | 0.66 | 0.66 | 0.66 | 88 | 1007.7 |
| 20260506122006 | 15 | 178 | 8.0 | 16.1 | 0.61 | 0.61 | 0.61 | 87 | 1007.7 |
| 20260506121514 | 15 | 208 | 4.8 | 16.1 | 0.53 | 0.53 | 0.53 | 87 | 1007.8 |
| 20260506121006 | 15 | 196 | 8.0 | 24.1 | 0.46 | 0.46 | 0.46 | 85 | 1007.8 |
| 20260506120508 | 15 | 225 | 12.9 | 22.5 | 0.43 | 0.43 | 0.43 | 85 | 1007.9 |
| 20260506120020 | 15 | 195 | 9.7 | 19.3 | 0.36 | 0.36 | 0.36 | 84 | 1007.8 |
| 20260506115507 | 15 | 215 | 11.3 | 16.1 | 0.28 | 0.28 | 0.28 | 83 | 1007.7 |
| 20260506115008 | 16 | 188 | 6.4 | 14.5 | 0.23 | 0.23 | 0.23 | 82 | 1007.7 |
| 20260506114526 | 16 | 186 | 4.8 | 12.9 | 0.15 | 0.15 | 0.15 | 80 | 1007.7 |
| 20260506114007 | 16 | 175 | 6.4 | 12.9 | 0.08 | 0.08 | 0.08 | 79 | 1007.6 |
| 20260506113511 | 16 | 202 | 8.0 | 12.9 | 0.05 | 0.05 | 0.05 | 77 | 1007.4 |
| 20260506113008 | 16 | 196 | 6.4 | 12.9 | 0.03 | 0.03 | 0.03 | 76 | 1007.4 |
| 20260506112506 | 17 | 200 | 3.2 | 14.5 | 0.00 | 0.00 | 0.00 | 75 | 1007.4 |
| 20260506112006 | 17 | 203 | 6.4 | 14.5 | 0.00 | 0.00 | 0.00 | 74 | 1007.3 |
| 20260506111509 | 17 | 208 | 6.4 | 14.5 | 0.00 | 0.00 | 0.00 | 74 | 1007.1 |
| 20260506111003 | 17 | 150 | 4.8 | 16.1 | 0.00 | 0.00 | 0.00 | 74 | 1007.1 |
| 20260506110507 | 17 | 192 | 6.4 | 22.5 | 0.00 | 0.00 | 0.00 | 74 | 1007.2 |
| 20260506110013 | 17 | 209 | 8.0 | 22.5 | 0.00 | 0.00 | 0.00 | 72 | 1007.2 |
| 20260506105509 | 17 | 182 | 6.4 | 19.3 | 0.00 | 0.00 | 0.00 | 72 | 1006.8 |
| 20260506105009 | 17 | 201 | 8.0 | 25.7 | 0.00 | 0.00 | 0.00 | 70 | 1006.9 |
| 20260506104518 | 17 | 197 | 8.0 | 25.7 | 0.00 | 0.00 | 0.00 | 69 | 1006.9 |
| 20260506104014 | 18 | 205 | 6.4 | 17.7 | 0.00 | 0.00 | 0.00 | 69 | 1006.8 |
| 20260506103509 | 18 | 190 | 6.4 | 19.3 | 0.00 | 0.00 | 0.00 | 68 | 1006.8 |
| 20260506103028 | 18 | 196 | 8.0 | 19.3 | 0.00 | 0.00 | 0.00 | 67 | 1006.7 |
| 20260506102512 | 18 | 216 | 8.0 | 14.5 | 0.00 | 0.00 | 0.00 | 67 | 1006.5 |
| 20260506102007 | 18 | 236 | 4.8 | 16.1 | 0.00 | 0.00 | 0.00 | 67 | 1006.5 |
| 20260506101508 | 18 | 173 | 6.4 | 22.5 | 0.00 | 0.00 | 0.00 | 66 | 1006.4 |
| 20260506101005 | 18 | 203 | 11.3 | 24.1 | 0.00 | 0.00 | 0.00 | 66 | 1006.5 |
| 20260506100503 | 18 | 177 | 12.9 | 24.1 | 0.00 | 0.00 | 0.00 | 66 | 1006.4 |
| 20260506100011 | 18 | 154 | 6.4 | 22.5 | 0.00 | 0.00 | 0.00 | 66 | 1006.4 |
| 20260506095507 | 18 | 175 | 6.4 | 20.9 | 0.00 | 0.00 | 0.00 | 66 | 1006.3 |
| 20260506095008 | 18 | 163 | 8.0 | 17.7 | 0.00 | 0.00 | 0.00 | 66 | 1006.3 |
| 20260506094528 | 18 | 157 | 4.8 | 20.9 | 0.00 | 0.00 | 0.00 | 66 | 1006.2 |
| 20260506094010 | 18 | 235 | 11.3 | 20.9 | 0.00 | 0.00 | 0.00 | 65 | 1006.1 |
| 20260506093509 | 18 | 217 | 6.4 | 16.1 | 0.00 | 0.00 | 0.00 | 65 | 1006.2 |
| 20260506093034 | 18 | 185 | 8.0 | 17.7 | 0.00 | 0.00 | 0.00 | 65 | 1006.4 |
| 20260506092510 | 18 | 213 | 11.3 | 17.7 | 0.00 | 0.00 | 0.00 | 65 | 1006.5 |
| 20260506092014 | 18 | 190 | 3.2 | 19.3 | 0.00 | 0.00 | 0.00 | 64 | 1006.6 |